Regional Weather Roundup
Issued by NWS Wakefield, VA

Home | Current Version | Previous Version | Text Only | Print | Product List | Glossary Off
Versions: 1 2 3 4 5 6 7 8 9 10 11 12 13 14 15 16 17 18 19 20 21 22 23 24 25 26 27

000
ASUS41 KAKQ 251915
RWRAKQ

REGIONAL WEATHER ROUNDUP
NATIONAL WEATHER SERVICE WAKEFIELD VA
300 PM EDT THU AUG 25 2016

Note: "fair" indicates few or no clouds below 12,000 feet with no
significant weather and/or obstructions to visibility. * = Denotes
station may not report precipitation (e.g., rain,snow,etc.),
thunder or fog.

VAZ042-051-052>054-056-252000-
NORTHERN VIRGINIA

CITY           SKY/WX    TMP DP  RH WIND       PRES   REMARKS
WASH NATIONAL  CLOUDY    86  73  65 S12       30.04F
DULLES         CLOUDY    90  72  55 S13G20    30.04F HX  97
FORT BELVOIR   CLOUDY    85  72  65 VRB5      30.04F
QUANTICO       NOT AVBL
FREDERICKSBRG*   N/A     88  73  62 S7        30.04F HX  95
STAFFORD*      CLOUDY    85  71  62 S6        30.09F
WARRENTON      CLOUDY    87  69  55 S3        30.06F
CULPEPER*      CLOUDY    88  77  69 S3        30.06F HX  99
MANASSAS*      SUNNY     84  73  70 S6        30.05F
LEESBURG*      CLOUDY    91  77  62 SW5       30.06S HX 105
WINCHESTER     CLOUDY    88  72  58 SW9       30.06F
FRONT ROYAL*   MOCLDY    88  73  62 SW6       30.06S HX  96
LURAY*         FAIR      90  72  55 SW8       30.07F HX  96
$$

VAZ048-049-060>072-079>083-252000-
CENTRAL AND SOUTH CENTRAL VIRGINIA

CITY           SKY/WX    TMP DP  RH WIND       PRES   REMARKS
RICHMOND       PTSUNNY   90  67  46 SW13      30.07F
CHESTERFIELD*  FAIR      91  63  38 SW6G16    30.08F
PETERSBURG*    SUNNY     91  66  43 S7        30.08F
HANOVER        CLOUDY    89  67  47 VRB3      30.08F
TAPPAHANNOCK*  CLOUDY    89  70  53 SW7       30.07F
QUINTON*       FAIR      89  70  52 CALM      30.07F
CHARLOTTSVILLE MOSUNNY   92  74  55 SW8       30.06F HX 101
GORDONSVILLE*  FAIR      90  75  62 SW7       30.06F HX 100
ORANGE*          N/A     88  72  58 S7        30.08F
LOUISA*        SUNNY     91  75  59 S7        30.07F HX 102
BUMPASS*       FAIR      88  75  64 SW5       30.07F HX  97
FARMVILLE*     NOT AVBL
CREWE*         FAIR      88  71  56 SW5       30.09S
FORT PICKETT*  NOT AVBL
CHASE CITY*    FAIR      89  68  49 SE6       30.09F
CLARKSVILLE*   FAIR      88  70  55 S7        30.09F
SOUTH HILL*    CLOUDY    88  69  54 SW8       30.14F
LAWRENCEVILLE* FAIR      90  70  51 S9        30.08F
EMPORIA*       SUNNY     88  68  51 S8        30.10F
$$

VAZ088>098-252000-
SOUTHEAST VIRGINIA

CITY           SKY/WX    TMP DP  RH WIND       PRES   REMARKS
NORFOLK        MOSUNNY   87  68  52 S12       30.09F
VIRGINIA BEACH MOSUNNY   92  67  43 SE6       30.08F HX  95
NORFOLK NAVAL  MOSUNNY   88  67  49 W7        30.10F
WEST POINT*    MOSUNNY   88  66  47 S9        30.09F
SALUDA*        FAIR      86  70  59 S9        30.07F
NEWPORT NEWS   MOSUNNY   88  69  53 SE10G20   30.09F
LANGLEY AFB    MOSUNNY   88  69  53 S10       30.08F
FORT EUSTIS    SUNNY     90  71  53 S9        30.06F HX  96
WILLIAMSBURG*  SUNNY     91  70  49 S9        30.09F HX  97
HR EXEC AP*    FAIR      88  70  55 S7        30.11F
FRANKLIN*      MOSUNNY   88  68  50 S6        30.09F
US460-WAKEFLD  SUNNY     89  66  46 SW8       30.08F
$$

VAZ020-022-025-037-045-252000-
WEST CENTRAL AND SOUTHWEST VIRGINIA

CITY           SKY/WX    TMP DP  RH WIND       PRES   REMARKS
STAUNTON*      PTSUNNY   87  71  58 SW6       30.11F
WAYNESBORO*    FAIR      88  71  57 SW7       30.12F
HOT SPRINGS VA CLOUDY    80  69  70 W8G17     30.27S
LYNCHBURG      MOSUNNY   91  71  51 VRB7      30.11F HX  97
DANVILLE       MOSUNNY   89  72  56 SW7       30.10F HX  96
SOUTH BOSTON*  FAIR      91  68  45 NW9       30.09S HX  95
MARTINSVILLE   SUNNY     89  73  59 S5        30.14F HX  97
ROANOKE        MOSUNNY   91  70  49 NW9       30.13F HX  96
BLACKSBURG     SUNNY     85  71  61 W5        30.22F
DUBLIN*        MOSUNNY   87  70  56 W5        30.20F
MARION*        MOSUNNY   83  72  67 SW8       30.26F
HILLSVILLE*    MOSUNNY   82  69  65 NW9       30.23F
RICHLANDS*     LGT RAIN  78  71  79 W9G17     30.25F
WISE*          PTSUNNY   82  61  47 W7        30.26S
ABINGDON*      CLOUDY    84  71  64 W7        30.22F
$$

MDZ021>025-VAZ099-100-252000-
SOUTHERN MARYLAND AND THE DELMARVA PENINSULA

CITY           SKY/WX    TMP DP  RH WIND       PRES   REMARKS
PATUXENT RIVER CLOUDY    87  69  54 S8G18     30.05F
BAY BRIDGE APT MOSUNNY   86  72  62 S13       30.05F
LEONARDTOWN    CLOUDY    84  68  58 S8        30.07F
DOVER          CLOUDY    87  73  63 S14       30.03F HX  95
GEORGETOWN     PTSUNNY   86  69  56 S16       30.07F
EASTON         MOSUNNY   86  75  70 S14       30.09F HX  95
CAMBRIDGE      CLOUDY    82  70  65 S8        30.06F
SALISBURY      SUNNY     86  69  56 S15       30.07F
OCEAN CITY     SUNNY     83  68  60 S8G17     30.08F
WALLOPS ISLAND SUNNY     84  59  42 S18       30.10F
ACCOMACK*      SUNNY     86  62  43 S12       30.09F
$$

NCZ012>017-030>032-252000-
NORTH CENTRAL AND EASTERN NORTH CAROLINA

CITY           SKY/WX    TMP DP  RH WIND       PRES   REMARKS
ROANOKE RAPIDS FAIR      86  68  54 SW3       30.09F
RALEIGH        CLOUDY    89  66  46 S5        30.11F
ELIZABETH CITY PTSUNNY   85  64  49 SE8       30.11F
AHOSKIE*       SUNNY     85  69  58 S3        30.09F
EDENTON*       SUNNY     88  62  41 S5        30.12F
CURRITUCK*       N/A     85  66  52 SE3       30.11F
KILL DEVIL HLS SUNNY     89  70  54 SE6       30.11F
MANTEO         MOSUNNY   84  66  55 SW9       30.12F
CAPE HATTERAS  SUNNY     88  66  48 SE9       30.13F
TARBORO*       FAIR      89  70  52 S3        30.10F
GOLDSBORO      MOSUNNY   88  68  52 SE5       30.10F
WASHINGTON     SUNNY     86  68  54 CALM      30.11F
GREENVILLE     PTSUNNY   88  68  51 CALM      30.12F
NEW BERN       SUNNY     86  66  51 E5        30.12F
WILMINGTON     MOSUNNY   86  69  56 SE9       30.12F
$$

VAZ048-252000-
ELSEWHERE

CITY           SKY/WX    TMP DP  RH WIND       PRES   REMARKS
HARRISBURG PA  CLOUDY    86  74  67 CALM      30.02F
BALTIMORE      PTSUNNY   87  71  58 S9        30.03F
ANNAPOLIS      MOSUNNY   86  72  62 S10       30.04F
ANDREWS AFB    CLOUDY    86  71  61 SW10G20   30.05F
PHILADELPHIA   CLOUDY    86  70  58 S17G24    30.03F
HENDERSON NC   CLOUDY    84  67  56 S8        30.10F
GREENSBORO     PTSUNNY   90  69  50 W7        30.12F
ROCKY MOUNT    SUNNY     90  68  48 S8        30.10F
$$

VAZ100-252000-
MARINE

STATION/POSITION TIME  TEMP    WIND        PRES    WAVE   SWELL
                       AIR SEA DIR/SP/G            HT/PER HT/PER
                 (UTC) (F)     (DEG/KT/KT) (MB)    (FT/S) (FT/S)
BRANDYWINE LGT   1800   75     180/ 19/ 20   N/A
CAPE MAY NJ      1800   78 76  160/ 14/ 19 1018.2F
LEWES DE         1800   84 73  190/  9/ 12 1018.3F
OCEAN-CITY-INLET 1800   77 74  200/ 11/ 14 1019.8F
WACHAPREAGUE VA  1800   81 81  180/ 12/ 14 1019.7F
THOMAS POINT MD  1900   82 82  190/ 14/ 16 1018.5F
GOOSES REEF MD   1800   84 82  190/ 10/ 14 1018.7F   1/ 3
COVE POINT MD    1800   82     190/ 12/ 14 1018.8F
SOLOMONS ISLAND  1800   84 84  180/ 11/ 13   N/A
BISHOPS HEAD MD  1800   81 81  180/ 17/ 20 1019.0F
PINEY POINT MD   1800          210/  9/ 12   N/A
POTOMAC MD       1800   84 83  210/ 10/ 14 1017.7F   1/ 3
CAMBRIDGE MD     1800   84 82  170/  9/ 12 1017.7F
LEWISETTA VA     1800   84 82  190/  9/ 12 1018.1F
RAPPAHANNOCK LGT 1800          190/ 15/ 17 1020.1F
STINGRAY PT      1800   82 83  110/ 16/ 19 1019.5F   2/ 3
YORK RVR RNG VA  1800   82     160/ 13/ 14 1019.0F
YORKTOWN VA      1800   85 82  190/  8/ 11 1018.9F
JAMESTOWN VA     1800   84 85  160/  8/ 12   N/A     0
DOMINION TERM VA 1800   83     220/  5/  7 1019.7F
KIPTOPEKE VA     1800      81  180/ 12/ 14   N/A
CHES BAY BRIDGE  1800   83 78  110/  7/ 10 1019.6F
CAPE HENRY VA    1800   80     130/ 14/ 16   N/A
WILLOUBY STN VA  1800   80      80/  8/  9   N/A
CAPE HENRY BUOY  1812      79                N/A     2/10
1ST LANDING BUOY 1800   80 80  150/ 16/ 16 1019.4F   2/ 3
CAPE CHARLES BUO 1826      79                N/A     3/10   2/11
OFFSHORE WE BUOY 1821      80                N/A     3/10   2/11
64NM E OF VA BCH 1850   79 83  270/  2/  4 1019.9F   3/10   3/10
DUCK PIER NC     1800   80 79  130/ 10/ 11 1020.0F
44100 DUCK FRF   1805      82                N/A     2/10
44056 DUCK FRF   1811      78                N/A     2/10   2/11
OREGON INLET NC  1800   81 80   80/  5/  8 1020.7F
HATTERAS NC      1800   83 80  130/  4/  6 1020.7F
DIAMOND SHLS NC  1850   81 85   60/  6/  8 1020.3F   3/ 9   3/ 9
CAPE LOOKOUT NC  1900   82      80/  8/  9 1019.6F
$$




USA.gov is the U.S. government's official web portal to all federal, state and local government web resources and services.